This is the latest recevied weather packets stored in our database for station/object N6GPM. If no packets are shown the sender has not sent any weather packets the latest 10 day(s).
| Time | Temp. | Humidity | Pressure | Rain* | Wind** | Luminosity | Snow |
|---|---|---|---|---|---|---|---|
| 1787688761 | 36.67° C | 24% | 1018.6 hPa | 0 mm | - | 1000 W/m² | - |
| 1787688456 | 36.67° C | 25% | 1018.8 hPa | 0 mm | - | 1004 W/m² | - |
| 1787688150 | 36.67° C | 26% | 1018.5 hPa | 0 mm | - | 1006 W/m² | - |
| 1787687847 | 36.67° C | 24% | 1018.7 hPa | 0 mm | - | 1009 W/m² | - |
| 1787687541 | 36.67° C | 23% | 1018.7 hPa | 0 mm | - | 1001 W/m² | - |
| 1787687237 | 36.11° C | 23% | 1018.9 hPa | 0 mm | - | 1011 W/m² | - |
| 1787686932 | 36.67° C | 22% | 1018.9 hPa | 0 mm | - | 1009 W/m² | - |
| 1787686629 | 35.56° C | 22% | 1018.9 hPa | 0 mm | - | 1008 W/m² | - |
| 1787686324 | 35.56° C | 23% | 1019 hPa | 0 mm | - | 1005 W/m² | - |
| 1787686019 | 35.56° C | 23% | 1019 hPa | 0 mm | - | 1002 W/m² | - |
| 1787685715 | 36.11° C | 22% | 1018.9 hPa | 0 mm | - | 1002 W/m² | - |
| 1787685414 | 35.56° C | 22% | 1019 hPa | 0 mm | - | 997 W/m² | - |
| 1787685114 | 36.11° C | 22% | 1018.9 hPa | 0 mm | - | 995 W/m² | - |
| 1787684810 | 35.56° C | 22% | 1019 hPa | 0 mm | - | 991 W/m² | - |
| 1787684509 | 35.56° C | 23% | 1019.3 hPa | 0 mm | - | 983 W/m² | - |
| 1787684204 | 35.56° C | 24% | 1019.5 hPa | 0 mm | - | 978 W/m² | - |
| 1787683899 | 35.56° C | 25% | 1019.2 hPa | 0 mm | - | 973 W/m² | - |
| 1787683594 | 35° C | 24% | 1019.5 hPa | 0 mm | - | 966 W/m² | - |
| 1787683289 | 35.56° C | 26% | 1019.7 hPa | 0 mm | - | 960 W/m² | - |
| 1787682986 | 35.56° C | 25% | 1019.6 hPa | 0 mm | - | 952 W/m² | - |
| 1787682681 | 35.56° C | 24% | 1019.4 hPa | 0 mm | - | 948 W/m² | - |
| 1787682377 | 35.56° C | 25% | 1019.4 hPa | 0 mm | - | 935 W/m² | - |
| 1787682073 | 35.56° C | 25% | 1019.7 hPa | 0 mm | - | 929 W/m² | - |
| 1787681768 | 35.56° C | 25% | 1019.8 hPa | 0 mm | - | 919 W/m² | - |
| 1787681463 | 35° C | 24% | 1019.6 hPa | 0 mm | - | 910 W/m² | - |
* Rain latest hour (hover to see other rain measurements)
** Current wind speed in m/s (hover to see current wind gust speed)